Regional Weather Roundup
Issued by NWS Charleston, WV

Home | Current Version | Previous Version | Text Only | Print | Product List | Glossary Off
Versions: 1 2 3 4 5 6 7 8 9 10 11 12 13 14 15 16 17 18 19 20 21 22 23 24 25 26 27 28 29 30 31 32 33 34 35 36 37 38 39 40 41 42 43 44 45 46 47 48 49 50

000
ASUS41 KRLX 261310
RWRRLX
West Virginia Regional Weather Roundup
National Weather Service Charleston WV
800 AM EST SUN FEB 26 2017

Note: "fair" indicates few or no clouds below 12,000 feet with no
significant weather and/or obstructions to visibility.

WVZ003-261400-
Northern Panhandle of West Virginia

CITY           SKY/WX    TMP DP  RH WIND       PRES   REMARKS
WHEELING       CLOUDY    28  14  55 W10       30.09R
$$

WVZ009-261400-
Northwest West Virginia

CITY           SKY/WX    TMP DP  RH WIND       PRES   REMARKS
PARKERSBURG    CLEAR     30  15  53 W9G17     30.17R
$$

WVZ006-261400-
Western West Virginia

CITY           SKY/WX    TMP DP  RH WIND       PRES   REMARKS
HUNTINGTON     CLEAR     29  18  63 SW6       30.20R
$$

WVZ015-261400-
West Central West Virginia

CITY           SKY/WX    TMP DP  RH WIND       PRES   REMARKS
CHARLESTON     SUNNY     31  17  56 SW10      30.18R
$$

WVZ022-031-261400-
North Central West Virginia

CITY           SKY/WX    TMP DP  RH WIND       PRES   REMARKS
CLARKSBURG     CLOUDY    30  17  58 W8        30.11R
MORGANTOWN     CLOUDY    30  16  56 VRB3      30.11R
$$

WVZ025-035-042-045-261400-
Southern West Virginia

CITY           SKY/WX    TMP DP  RH WIND       PRES   REMARKS
BECKLEY        SUNNY     25  13  60 W10       30.10R
LOGAN            N/A     28  18  64 SW5       30.16R
BLUEFIELD      CLOUDY    23  14  68 W14G22    30.09R
LEWISBURG      SUNNY     26  13  59 W6G17     30.08R
$$

WVZ047-261400-
Northern Mountains of West Virginia

CITY           SKY/WX    TMP DP  RH WIND       PRES   REMARKS
ELKINS         CLOUDY    27  13  55 VRB5      30.09R
$$

WVZ052-261400-
Eastern Panhandle of West Virginia

CITY           SKY/WX    TMP DP  RH WIND       PRES   REMARKS
MARTINSBURG    PTSUNNY   33  14  45 NW13      30.07R
PETERSBURG     PTSUNNY   33  17  52 NW7G23    30.09R
$$




USA.gov is the U.S. government's official web portal to all federal, state and local government web resources and services.